{"data":{"norad_id":59680,"epoch":"2026-09-22T23:46:59.643840Z","epoch_age_seconds":55016,"freshness":"FRESH","line1":"1 59680U 24085D   26265.99096810  .00009216  00000+0  24960-3 0  9991","line2":"2 59680  97.3167 341.3387 0013838  67.2164 293.0541 15.37795058132685","mean_motion":15.37795058,"eccentricity":0.0013838,"inclination_deg":97.3167,"raan_deg":341.3387,"arg_perigee_deg":67.2164,"mean_anomaly_deg":293.0541,"bstar":0.0002496,"rev_number":13268,"period_min":93.640566245076,"perigee_km":443.17856515074,"apogee_km":462.0833986174,"semimajor_km":6830.7679818841,"source":"CELESTRAK","updated_at":"2026-09-23T09:00:19.520371Z"}}